Regional Weather Roundup
Issued by NWS

Home | Current Version | Previous Version | Graphics & Text | Print | Product List | Glossary On
Versions: 1 2 3 4 5 6 7 8 9 10 11 12 13 14 15 16 17 18 19 20 21 22 23 24 25 26 27 28 29 30 31 32 33 34 35 36 37 38 39 40 41 42 43 44 45 46 47 48 49 50
257
ASUS43 KMKX 281400
RWRWI

WISCONSIN REGIONAL WEATHER ROUNDUP
NATIONAL WEATHER SERVICE MILWAUKEE/SULLIVAN WI
900 AM CDT SAT MAY 28 2016

NOTE: "FAIR" INDICATES FEW OR NO CLOUDS BELOW 12,000 FEET WITH NO
SIGNIFICANT WEATHER AND/OR OBSTRUCTIONS TO VISIBILITY.

WIZ001-002-006>008-014>016-023>028-281500-
NORTHWEST WISCONSIN

CITY           SKY/WX    TMP DP  RH WIND       PRES   REMARKS
SUPERIOR ARPT  FOG       46  46 100 CALM      29.80S VSB 1
ASHLAND        CLOUDY    53  51  93 VRB5      29.78S
HAYWARD        CLOUDY    59  57  93 S6        29.78R
SIREN          CLOUDY    54  53  94 N6        29.76F
CUMBERLAND     CLOUDY    57  57 100 E5        29.77R
RICE LAKE      CLOUDY    62  60  93 NE5       29.77S
CHETEK         CLOUDY    62  62 100 CALM      29.76F
LADYSMITH      PTSUNNY   65  64  94 N3        29.78R
EAU CLAIRE     CLOUDY    66  62  87 CALM      29.75R
MENOMONIE      CLOUDY    66  66  99 CALM      29.76R
NEW RICHMOND   FOG       60  60 100 CALM      29.77R VSB 1
OSCEOLA        CLOUDY    58  58 100 N3        29.77F FOG
$$

WIZ003>005-009-010-017-018-281500-
NORTH CENTRAL WISCONSIN

CITY           SKY/WX    TMP DP  RH WIND       PRES   REMARKS
MANITOWISH WTR NOT AVBL
ARBOR VITAE    PTSUNNY   69  67  90 S5        29.79R
WOODRUFF       PTSUNNY   69  67  90 S5        29.79R
RHINELANDER    RAIN      68  66  93 E5        29.79S FOG
EAGLE RIVER      N/A     66  65  96 CALM      29.80R FOG
LAND O LAKES   CLOUDY    66  65  96 SE6       29.82R
PHILLIPS       CLOUDY    66  65  96 E3        29.77S
TOMAHAWK       LGT RAIN  67  65  93 CALM      29.78S
MEDFORD        HVY RAIN  66  66 100 SE5       29.76S
MERRILL        LGT RAIN  66  66 100 S5        29.78S
$$

WIZ029-030-035-036-043>047-281500-
CENTRAL WISCONSIN

CITY           SKY/WX    TMP DP  RH WIND       PRES   REMARKS
WAUSAU         CLOUDY    70  65  84 S9        29.76R
MOSINEE        CLOUDY    66  66 100 S8        29.78R
MARSHFIELD     CLOUDY    69  65  86 SE8       29.74F
STEVENS POINT  RAIN      66  65  96 SE8       29.77F
WAUPACA        CLOUDY    70  70 100 SE6       29.78S
WAUTOMA        CLOUDY    69  66  90 S15       29.77S
WISC RAPIDS    CLOUDY    68  65  90 S7        29.76S
CAMP DOUGLAS   NOT AVBL
$$

WIZ011>013-019>022-031-037>040-048>050-281500-
NORTHEAST WISCONSIN

CITY           SKY/WX    TMP DP  RH WIND       PRES   REMARKS
ANTIGO         RAIN      66  65  98 S10       29.80S
SHAWANO        CLOUDY    70  67  88 SE9       29.79S
OCONTO         CLOUDY    67  67 100 SE9       29.82R
STURGEON BAY   NOT AVBL
GREEN BAY      CLOUDY    72  66  81 S13       29.80S
MANITOWOC      NOT AVBL
APPLETON       CLOUDY    70  66  88 S14       29.79S
CLINTONVILLE   CLOUDY    68  66  94 S10       29.78S
OSHKOSH        CLOUDY    71  65  81 S13G22    29.79S
$$

WIZ032>034-041-042-053>061-281500-
SOUTHWEST WISCONSIN

CITY           SKY/WX    TMP DP  RH WIND       PRES   REMARKS
LA CROSSE      CLOUDY    69  66  90 S5        29.73R
SPARTA         CLOUDY    66  65  97 CALM      29.74R
VIROQUA        CLOUDY    67  67  99 S8        29.77R
BOSCOBEL       CLOUDY    70  65  84 S9        29.78R
PRAIRIE DU CHI CLOUDY    66  65  95 S3        29.78R
PLATTEVILLE    CLOUDY    66  64  91 S17       29.81R
$$

WIZ056-057-062-063-064-067-068-281500-
SOUTH CENTRAL WISCONSIN

CITY           SKY/WX    TMP DP  RH WIND       PRES   REMARKS
REEDSBURG      CLOUDY    68  66  92 S12G17    29.76R
BARABOO/DELLS  CLOUDY    68  64  85 S12       29.77R
LONE ROCK      NOT AVBL
MINERAL POINT  CLOUDY    68  64  88 S17G23    29.80R
MADISON        CLOUDY    71  63  75 S17       29.80R
MIDDLETON      CLOUDY    71  64  78 S18G25    29.80R
WATERTOWN      CLOUDY    71  68  90 S14       29.82R
MONROE         CLOUDY    70  64  83 S20G29    29.82R
JANESVILLE     NOT AVBL
$$

WIZ051-052-058>065-066-070>072-281500-
SOUTHEAST WISCONSIN

CITY           SKY/WX    TMP DP  RH WIND       PRES   REMARKS
MILWAUKEE      CLOUDY    73  66  78 S15       29.85R
WAUKESHA       CLOUDY    70  64  83 S15       29.86R
MILWAUKEE/TIMM PTSUNNY   72  63  73 S14       29.85R
RACINE         CLOUDY    72  64  76 S12       29.88S
BURLINGTON     CLOUDY    72  66  81 S12G24    29.85S
KENOSHA        CLOUDY    73  65  75 SW17G23   29.87R
FOND DU LAC    CLOUDY    72  66  81 S22G29    29.80S
SHEBOYGAN      CLOUDY    67  62  84 S9        29.84R
WEST BEND      CLOUDY    70  64  83 S10G17    29.83S
JUNEAU         CLOUDY    70  65  86 S14G25    29.82S
$$

LSZ147-162-281500-
LAKE SUPERIOR

STATION/POSITION TIME  TEMP    WIND        PRES    WAVE
                       AIR SEA DIR/SP/G            HT/PER
                 (UTC) (F)     (DEG/KT/KT) (MB)    (FT/S)
W MID LAKE BUOY  1250   40 38   30/ 10/ 12 1008.6R   2/ 4
DEVILS ISLAND    1300   43      50/  7/  8 1009.2R
SAXON HARBOR     1300   51     350/  3/  4 1008.1S
$$

LMZ867-665-643>646-281500-
LAKE MICHIGAN

STATION/POSITION TIME  TEMP    WIND        PRES    WAVE
                       AIR SEA DIR/SP/G            HT/PER
                 (UTC) (F)     (DEG/KT/KT) (MB)    (FT/S)
CHAMBERS ISLAND  1300   64     140/  5/ 13 1010.2S
N MID LAKE BUOY  1250   53 46  190/ 14/ 16 1011.0R   2/ 4
NORTHPORT PIER   1300   57     150/ 10/ 14 1010.8R
SISTER BAY       1305   61     150/ 13/ 17   N/A
ALGOMA LAKESHORE 1302             CALM       N/A
KEWAUNEE LAKESHO 1300   52     180/  7/  9 1010.1S
SHEBOYGAN LAKESH 1300   53     160/ 14/ 14 1010.7F
PORT WASHINGTON  1300   58     210/  4/  6 1011.5R
S MID LAKE BUOY  1250   57 50  160/ 16/ 17 1011.7R   1/ 3
KENOSHA   LAKESH 1300   54     170/ 11/ 14 1011.2S
$$

TC  - TEMPERATURE IN CELSIUS
VSB - VISIBILITY IN STATUTE MILES
WCI - WIND CHILL INDEX
HX  - HEAT INDEX





USA.gov is the U.S. government's official web portal to all federal, state and local government web resources and services.